Simultaneous Nadir Overpasses (SNOs) Predictions

Prediction of SNOs between AQUA and METOP-B Satellite Orbit:

Table of predicted SNOs for the next 14.0 days since TLE Epoch: 4/17/2020
Index Date (AQUA) Time (AQUA) Lat,Lon (AQUA) SZA (AQUA ) Date (METOP-B) Time (METOP-B) Lat,Lon (METOP-B) SZA (METOP-B ) Distance(km) Time Diff (sec)
1 04/18/2020 16:51:27 -73.79, 101.52 117.39 04/18/2020 16:51:02 -73.80, 101.46 117.37 2.13 25
2 04/18/2020 17:40:57 73.89, -91.07 62.71 04/18/2020 17:41:41 73.86, -91.06 62.68 3.62 44
3 04/21/2020 11:36:02 73.08, 1.81 60.92 04/21/2020 11:34:57 73.06, -1.13 61.00 95.02 65
4 04/21/2020 12:25:41 -73.81, 167.92 118.33 04/21/2020 12:25:24 -73.79, 167.84 118.34 3.13 17
5 04/21/2020 13:15:10 73.86, -24.56 61.72 04/21/2020 13:16:02 73.89, -24.57 61.75 3.67 52
6 04/24/2020 07:10:23 73.42, 67.54 60.34 04/24/2020 07:09:14 73.35, 65.91 60.32 52.68 69
7 04/24/2020 07:59:56 -73.83,-125.69 119.25 04/24/2020 07:59:46 -73.83,-125.66 119.25 0.99 10
8 04/24/2020 08:49:25 73.89, 41.82 60.81 04/24/2020 08:50:25 73.88, 41.79 60.79 1.42 60
9 04/27/2020 02:44:43 73.72, 133.35 59.74 04/27/2020 02:43:30 73.68, 133.07 59.72 9.59 73
10 04/27/2020 03:34:10 -73.81, -59.20 120.18 04/27/2020 03:34:09 -73.81, -59.29 120.17 2.76 1
11 04/27/2020 04:23:40 73.92, 108.18 59.93 04/27/2020 04:24:47 73.91, 108.28 59.91 3.32 67
12 04/29/2020 22:18:57 73.76,-160.29 58.90 04/29/2020 22:17:50 73.76,-160.33 58.92 1.23 67
13 04/29/2020 23:08:24 -73.84, 7.16 121.02 04/29/2020 23:08:30 -73.85, 7.20 121.02 1.52 6




NCC Satellite Simultaneous Nadir Overpasses (SNOs) Prediction Service
